Weather History for Hays, KS

Change the Weather History Date:

Monday, May 27, 2013

  Actual Average Record
Temperature  
Mean Temperature 84 °F -  
Max Temperature 98 °F 77 °F 98 °F (2006)
Min Temperature 69 °F 52 °F 46 °F (1999)
Cooling Degree Days 18    
Growing Degree Days 34 (Base 50)    
Moisture  
Dew Point 61 °F    
Average Humidity 58    
Maximum Humidity 83    
Minimum Humidity 15    
Precipitation  
Precipitation 0.00 in - - ()
Sea Level Pressure  
Sea Level Pressure 29.62 in    
Wind  
Wind Speed 18 mph (SE)    
Max Wind Speed 31 mph    
Max Gust Speed 43 mph    
Visibility 10 miles    
Events      
Averages and records for this station are not official NWS values.
T = Trace of Precipitation, MM = Missing Value Source: NWS Daily Summary

Daily Weather History Graph

Daily Weather History Graph

Search for Another Location

Airport:

Trip Planner

Search our weather history database for the weather conditions in past years. The results will help you decide how hot, cold, wet, or windy it might be!

Date:

Astronomy

May. 27, 2013 Rise Set
Actual Time 6:15 AM CDT 8:53 PM CDT
Civil Twilight 5:44 AM CDT 9:24 PM CDT
Nautical Twilight 5:06 AM CDT 10:02 PM CDT
Astronomical Twilight 4:23 AM CDT 10:46 PM CDT
Moon 11:34 PM CDT (5/27) 8:54 AM CDT (5/27)
Length of Visible Light 15h 39m
Length of Day
14h 37m
Waning Gibbous, 91% of the Moon is Illuminated
May 27
Waning Gibbous
May 31
Last Quarter
Jun 8
New
Jun 16
First Quarter
Jun 23
Full

Hourly Weather History & Observations

Time (CDT) Temp. Heat Index Dew Point Humidity Pressure Visibility Wind Dir Wind Speed Gust Speed Precip Events Conditions
12:15 AM 73.4 °F - 64.4 °F 73% 29.73 in 10.0 mi South 21.9 mph 29.9 mph N/A   Clear
12:35 AM 73.4 °F - 66.2 °F 78% 29.73 in 10.0 mi SSE 21.9 mph 31.1 mph N/A   Clear
12:55 AM 71.6 °F - 66.2 °F 83% 29.73 in 10.0 mi SSE 18.4 mph 29.9 mph N/A   Clear
1:15 AM 71.6 °F - 64.4 °F 78% 29.74 in 10.0 mi SSE 18.4 mph 23.0 mph N/A   Clear
1:35 AM 71.6 °F - 64.4 °F 78% 29.74 in 10.0 mi SSE 17.3 mph 23.0 mph N/A   Partly Cloudy
1:55 AM 71.6 °F - 64.4 °F 78% 29.74 in 10.0 mi ESE 17.3 mph 24.2 mph N/A   Clear
2:15 AM 71.6 °F - 64.4 °F 78% 29.72 in 10.0 mi ENE 20.7 mph 26.5 mph N/A   Clear
2:35 AM 71.6 °F - 64.4 °F 78% 29.71 in 10.0 mi ENE 18.4 mph 24.2 mph N/A   Clear
2:55 AM 71.6 °F - 64.4 °F 78% 29.70 in 10.0 mi ENE 19.6 mph 26.5 mph N/A   Clear
3:15 AM 71.6 °F - 64.4 °F 78% 29.70 in 10.0 mi NNE 19.6 mph 27.6 mph N/A   Clear
3:35 AM 71.6 °F - 64.4 °F 78% 29.69 in 10.0 mi North - - N/A   Clear
3:55 AM 71.6 °F - 64.4 °F 78% 29.67 in 10.0 mi SSE 15.0 mph 24.2 mph N/A   Clear
4:15 AM 71.6 °F - 64.4 °F 78% 29.67 in 10.0 mi South 16.1 mph 24.2 mph N/A   Clear
4:35 AM 69.8 °F - 64.4 °F 83% 29.66 in 10.0 mi South 15.0 mph 21.9 mph N/A   Clear
4:55 AM 69.8 °F - 64.4 °F 83% 29.66 in 10.0 mi South 15.0 mph 23.0 mph N/A   Clear
5:15 AM 69.8 °F - 64.4 °F 83% 29.65 in 10.0 mi North - - N/A   Clear
5:35 AM 69.8 °F - 62.6 °F 78% 29.65 in 10.0 mi South 16.1 mph 21.9 mph N/A   Clear
5:55 AM 69.8 °F - 62.6 °F 78% 29.64 in 10.0 mi South 13.8 mph 21.9 mph N/A   Clear
6:15 AM 69.8 °F - 62.6 °F 78% 29.64 in 10.0 mi South 11.5 mph - N/A   Clear
6:35 AM 69.8 °F - 62.6 °F 78% 29.64 in 10.0 mi ESE 11.5 mph 19.6 mph N/A   Clear
6:55 AM 69.8 °F - 62.6 °F 78% 29.63 in 10.0 mi SSW 11.5 mph 23.0 mph N/A   Clear
7:15 AM 71.6 °F - 62.6 °F 73% 29.64 in 10.0 mi SSW 8.1 mph 17.3 mph N/A   Clear
7:35 AM 71.6 °F - 62.6 °F 73% 29.67 in 10.0 mi SW 8.1 mph 23.0 mph N/A   Scattered Clouds
7:55 AM 71.6 °F - 62.6 °F 73% 29.69 in 10.0 mi NE 3.5 mph - N/A   Mostly Cloudy
8:15 AM 71.6 °F - 62.6 °F 73% 29.70 in 10.0 mi NE 10.4 mph 16.1 mph N/A   Mostly Cloudy
8:35 AM 75.2 °F - 64.4 °F 69% 29.67 in 10.0 mi SW 8.1 mph - N/A   Partly Cloudy
8:55 AM 77.0 °F - 64.4 °F 65% 29.67 in 10.0 mi ESE 13.8 mph - N/A   Clear
9:15 AM 78.8 °F - 64.4 °F 61% 29.66 in 10.0 mi South 10.4 mph - N/A   Clear
9:35 AM 78.8 °F - 64.4 °F 61% 29.68 in 10.0 mi ESE 8.1 mph - N/A   Partly Cloudy
9:55 AM 80.6 °F 82.3 °F 64.4 °F 58% 29.68 in 10.0 mi East 5.8 mph - N/A   Partly Cloudy
10:15 AM 80.6 °F 82.3 °F 64.4 °F 58% 29.66 in 10.0 mi SE 10.4 mph - N/A   Partly Cloudy
10:35 AM 82.4 °F 83.9 °F 64.4 °F 54% 29.66 in 10.0 mi SE 5.8 mph - N/A   Clear
10:55 AM 82.4 °F 84.6 °F 66.2 °F 58% 29.66 in 10.0 mi East 12.7 mph 17.3 mph N/A   Partly Cloudy
11:15 AM 84.2 °F 86.6 °F 66.2 °F 55% 29.66 in 10.0 mi East 19.6 mph - N/A   Clear
11:35 AM 82.4 °F 84.6 °F 66.2 °F 58% 29.66 in 10.0 mi ENE 23.0 mph - N/A   Clear
11:55 AM 82.4 °F 84.6 °F 66.2 °F 58% 29.66 in 10.0 mi East 21.9 mph 32.2 mph N/A   Clear
12:15 PM 82.4 °F 84.6 °F 66.2 °F 58% 29.65 in 10.0 mi East 25.3 mph 31.1 mph N/A   Clear
12:35 PM 82.4 °F 84.6 °F 66.2 °F 58% 29.64 in 10.0 mi East 25.3 mph 33.4 mph N/A   Clear
12:55 PM 84.2 °F 87.3 °F 68.0 °F 58% 29.63 in 10.0 mi East 27.6 mph 32.2 mph N/A   Clear
1:15 PM 84.2 °F 87.3 °F 68.0 °F 58% 29.62 in 10.0 mi East 21.9 mph 31.1 mph N/A   Clear
1:35 PM 89.6 °F 92.2 °F 66.2 °F 46% 29.60 in 10.0 mi SE 23.0 mph 39.1 mph N/A   Partly Cloudy
1:55 PM 91.4 °F 94.0 °F 66.2 °F 43% 29.59 in 10.0 mi SE 27.6 mph 36.8 mph N/A   Partly Cloudy
2:15 PM 91.4 °F 94.0 °F 66.2 °F 43% 29.58 in 10.0 mi SE 31.1 mph 41.4 mph N/A   Clear
2:35 PM 93.2 °F 96.2 °F 66.2 °F 41% 29.57 in 10.0 mi SE 29.9 mph 40.3 mph N/A   Clear
2:55 PM 91.4 °F 95.4 °F 68.0 °F 46% 29.56 in 10.0 mi SE 31.1 mph 41.4 mph N/A   Clear
3:15 PM - - - N/A% 29.54 in 10.0 mi SE 29.9 mph 42.6 mph N/A   Clear
3:35 PM - - - N/A% 29.53 in 10.0 mi SE 31.1 mph 39.1 mph N/A   Clear
3:55 PM 96.8 °F 96.2 °F 59.0 °F 28% 29.52 in 10.0 mi SSE 28.8 mph 36.8 mph N/A   Clear
4:15 PM 98.6 °F 97.6 °F 57.2 °F 25% 29.52 in 10.0 mi South 23.0 mph 39.1 mph N/A   Clear
4:35 PM 98.6 °F 97.2 °F 55.4 °F 24% 29.51 in 10.0 mi South 24.2 mph 34.5 mph N/A   Clear
4:55 PM 98.6 °F 99.4 °F 60.8 °F 29% 29.52 in 10.0 mi SSW 24.2 mph 34.5 mph N/A   Clear
5:15 PM 96.8 °F 97.1 °F 60.8 °F 30% 29.52 in 10.0 mi South 24.2 mph 32.2 mph N/A   Clear
5:35 PM 95.0 °F - 46.4 °F 19% 29.52 in 10.0 mi SW 15.0 mph 23.0 mph N/A   Clear
5:55 PM 93.2 °F - 42.8 °F 17% 29.53 in 10.0 mi WSW 15.0 mph 23.0 mph N/A   Clear
6:15 PM 91.4 °F - 48.2 °F 23% 29.52 in 10.0 mi West 18.4 mph 24.2 mph N/A   Scattered Clouds
6:35 PM 89.6 °F - 48.2 °F 24% 29.51 in 10.0 mi West 15.0 mph 29.9 mph N/A   Partly Cloudy
6:55 PM 89.6 °F - 44.6 °F 21% 29.53 in 10.0 mi West 27.6 mph 35.7 mph N/A   Partly Cloudy
7:15 PM 91.4 °F - 37.4 °F 15% 29.53 in 10.0 mi WNW 31.1 mph 40.3 mph N/A   Partly Cloudy
7:35 PM 89.6 °F - 37.4 °F 16% 29.49 in 10.0 mi WNW 23.0 mph 31.1 mph N/A   Partly Cloudy
7:55 PM 91.4 °F - 39.2 °F 16% 29.48 in 10.0 mi West 25.3 mph 35.7 mph N/A   Clear
8:15 PM 87.8 °F - 46.4 °F 24% 29.50 in 10.0 mi WNW 17.3 mph 28.8 mph N/A   Clear
8:35 PM 84.2 °F - 50.0 °F 30% 29.52 in 10.0 mi NW 15.0 mph 20.7 mph N/A   Clear
8:55 PM 80.6 °F 81.5 °F 60.8 °F 51% 29.56 in 10.0 mi North 19.6 mph 27.6 mph N/A   Clear
9:15 PM 78.8 °F - 62.6 °F 57% 29.59 in 10.0 mi NE 15.0 mph 20.7 mph N/A   Clear
9:35 PM 78.8 °F - 64.4 °F 61% 29.59 in 10.0 mi NNE 13.8 mph - N/A   Clear
9:55 PM 77.0 °F - 64.4 °F 65% 29.61 in 10.0 mi NNE 17.3 mph - N/A   Clear
10:15 PM 75.2 °F - 64.4 °F 69% 29.62 in 10.0 mi NE 11.5 mph - N/A   Clear
10:35 PM 73.4 °F - 62.6 °F 69% 29.61 in 10.0 mi NE 11.5 mph - N/A   Clear
10:55 PM 73.4 °F - 62.6 °F 69% 29.60 in 10.0 mi NE 10.4 mph - N/A   Clear
11:15 PM 73.4 °F - 62.6 °F 69% 29.64 in 10.0 mi North 12.7 mph - N/A   Clear
11:35 PM 73.4 °F - 62.6 °F 69% 29.64 in 10.0 mi NNE 15.0 mph - N/A   Clear
11:55 PM 71.6 °F - 62.6 °F 73% 29.64 in 10.0 mi NNE 10.4 mph - N/A   Clear